Regional Weather Roundup
Issued by NWS Cleveland, OH

Home | Current Version | Previous Version | Text Only | Print | Product List | Glossary Off
Versions: 1 2 3 4 5 6 7 8 9 10 11 12 13 14 15 16 17 18 19 20 21 22 23 24 25 26 27 28 29 30 31 32 33 34 35 36 37 38 39 40 41 42 43 44 45 46 47 48 49 50

000
ASUS41 KCLE 202310
RWRCLE
OHIO REGIONAL WEATHER ROUNDUP
NATIONAL WEATHER SERVICE CLEVELAND, OH
700 PM EDT FRI OCT 20 2017

NOTE: "FAIR" INDICATES FEW OR NO CLOUDS BELOW 12,000 FEET WITH NO
SIGNIFICANT WEATHER AND/OR OBSTRUCTIONS TO VISIBILITY.

OHZ001>008-015>018-024>027-034-035-043-044-210000-
   NORTHWEST OHIO

CITY           SKY/WX    TMP DP  RH WIND       PRES   REMARKS
DEFIANCE       CLEAR     70  51  51 S5        30.16R
FINDLAY        CLEAR     67  45  45 S6        30.17R
TOLEDO EXPRESS CLOUDY    66  54  65 S3        30.15F
TOLEDO EXEC    CLOUDY    67  46  47 SE6       30.17S
LIMA           CLEAR     69  50  50 S6        30.18R
$$

OHZ009>014-019>023-028>033-038-089-210000-
   NORTHEAST OHIO

CITY           SKY/WX    TMP DP  RH WIND       PRES   REMARKS
CLE-HOPKINS    PTCLDY    65  40  39 S6        30.21S
CLE-LAKEFRONT  CLEAR     68  47  46 S5        30.18S
CUY CO. ARPT   PTCLDY    66  41  39 CALM      30.20F
LORAIN-ELYRIA  CLEAR     61  39  44 S6        30.19F
ASHTABULA      CLEAR     57  42  57 S5        30.21F
AKRON-CANTON   PTCLDY    64  41  42 S6        30.22S
WOOSTER        LGT RAIN  51  44  77 S3        30.22S
MANSFIELD      CLEAR     65  41  41 SE6       30.21S
YOUNGSTOWN     PTCLDY    59  41  51 S3        30.22S
$$

OHZ042-051>053-060>062-070>072-077>081-210000-
  SOUTHWEST OHIO

CITY           SKY/WX    TMP DP  RH WIND       PRES   REMARKS
CINC-COVINGTON MOCLDY    67  54  63 S5        30.19S
CINC-LUNKEN    CLEAR     65  59  81 CALM      30.19S
HAMILTON       CLEAR     66  54  65 CALM      30.19S
DAYTON         PTCLDY    69  54  58 SW6       30.20S
WRIGHT-PAT AFB PTCLDY    67  51  57 SE3       30.18F
DAYTON GENERAL CLEAR     67  52  58 S3        30.19S
WILMINGTON     CLEAR     68  54  60 SE5       30.20S
$$

OHZ036-037-039>041-045>050-054>059-063>069-073>076-082>088-210000-
  CENTRAL AND SOUTHEAST OHIO

CITY           SKY/WX    TMP DP  RH WIND       PRES   REMARKS
COLUMBUS       PTCLDY    69  41  36 SE3       30.20S
OSU AIRPORT    CLEAR     70  41  34 S5        30.20S
BOLTON FIELD   CLEAR     64  45  48 SE3       30.21S
RICKENBACK AFB CLEAR     65  45  48 SE3       30.21R
NEWARK         CLEAR     64  42  44 CALM      30.21R
MARION         CLEAR     64  38  38 S8        30.20S
LANCASTER      CLEAR     59  47  64 CALM      30.21S
ZANESVILLE     CLEAR     65  40  39 CALM      30.22R
NEW PHILLY     NOT AVBL
$$




USA.gov is the U.S. government's official web portal to all federal, state and local government web resources and services.